When you browse on this site, cookies collect data to enhance your experience and personalize the content and advertising you see.
Visit our Privacy Policy to learn more. By continuing to use the site, you agree to this use of cookies and data.
  • In Switzerland
  • List of Countries
  • For 7 days
  • Water Temperature
  • Weather Map
  • Weather Widgets
  • user-avatar
    Login

    Hourly Weather Trashigang

    Today, 29 March, Sunday

    Time Temperature Precipitation Wind Pressure Humidity
    00:00 +14°C° 0 mm 1 mps 625 mmHg 71%
    01:00 +13°C° 0 mm 1 mps 624 mmHg 71%
    02:00 +13°C° 0 mm 1 mps 624 mmHg 72%
    03:00 +13°C° 0 mm 2 mps 624 mmHg 72%
    04:00 +13°C° 0 mm 2 mps 624 mmHg 72%
    05:00 +12°C° 0 mm 2 mps 624 mmHg 72%
    06:00 +12°C° 0 mm 2 mps 624 mmHg 72%
    07:00 +15°C° 0 mm 1 mps 626 mmHg 63%
    08:00 +20°C° 0 mm 1 mps 627 mmHg 54%
    09:00 +23°C° 0 mm 1 mps 628 mmHg 44%
    10:00 +24°C° 0 mm 2 mps 628 mmHg 40%
    11:00 +25°C° 0 mm 2 mps 628 mmHg 36%
    12:00 +26°C° 0 mm 3 mps 628 mmHg 32%
    13:00 +25°C° 0 mm 3 mps 628 mmHg 32%
    14:00 +25°C° 0 mm 3 mps 627 mmHg 32%
    15:00 +25°C° 0 mm 3 mps 626 mmHg 32%
    16:00 +23°C° 0 mm 2 mps 626 mmHg 39%
    17:00 +19°C° 0 mm 2 mps 625 mmHg 45%
    18:00 +18°C° 0 mm 1 mps 624 mmHg 52%
    19:00 +16°C° 0 mm 1 mps 625 mmHg 54%
    20:00 +15°C° 0 mm 1 mps 625 mmHg 56%
    21:00 +14°C° 0 mm 1 mps 626 mmHg 58%
    22:00 +14°C° 0 mm 1 mps 626 mmHg 59%
    23:00 +14°C° 0 mm 1 mps 626 mmHg 60%

    Tomorrow, 30 March, Monday

    Time Temperature Precipitation Wind Pressure Humidity
    00:00 +14°C° 0 mm 2 mps 626 mmHg 61%
    01:00 +13°C° 0 mm 2 mps 625 mmHg 61%
    02:00 +13°C° 0 mm 1 mps 625 mmHg 62%
    03:00 +13°C° 0 mm 1 mps 624 mmHg 62%
    04:00 +12°C° 0 mm 2 mps 625 mmHg 62%
    05:00 +12°C° 0 mm 2 mps 625 mmHg 62%
    06:00 +12°C° 0 mm 2 mps 625 mmHg 62%
    07:00 +15°C° 0 mm 1 mps 626 mmHg 53%
    08:00 +20°C° 0 mm 1 mps 628 mmHg 44%
    09:00 +23°C° 0 mm 1 mps 629 mmHg 35%
    10:00 +24°C° 0 mm 1 mps 629 mmHg 32%
    11:00 +25°C° 0 mm 2 mps 629 mmHg 29%
    12:00 +25°C° 0 mm 3 mps 629 mmHg 26%
    13:00 +25°C° 0 mm 3 mps 628 mmHg 27%
    14:00 +25°C° 0 mm 3 mps 628 mmHg 28%
    15:00 +25°C° 0 mm 3 mps 627 mmHg 29%
    16:00 +23°C° 0 mm 2 mps 626 mmHg 35%
    17:00 +20°C° 0 mm 2 mps 626 mmHg 41%
    18:00 +18°C° 0 mm 1 mps 625 mmHg 46%
    19:00 +18°C° 0 mm 1 mps 626 mmHg 48%
    20:00 +16°C° 0 mm 1 mps 626 mmHg 50%
    21:00 +15°C° 0 mm 1 mps 627 mmHg 51%
    22:00 +14°C° 0 mm 2 mps 627 mmHg 52%
    23:00 +14°C° 0 mm 2 mps 627 mmHg 53%

    Day after tomorrow, 31 March, Tuesday

    Time Temperature Precipitation Wind Pressure Humidity
    00:00 +14°C° 0 mm 2 mps 627 mmHg 55%
    01:00 +14°C° 0 mm 2 mps 626 mmHg 55%
    02:00 +13°C° 0 mm 2 mps 626 mmHg 55%
    03:00 +13°C° 0 mm 2 mps 626 mmHg 55%
    04:00 +13°C° 0 mm 2 mps 626 mmHg 55%
    05:00 +13°C° 0 mm 2 mps 626 mmHg 55%
    06:00 +13°C° 0 mm 2 mps 626 mmHg 55%
    07:00 +16°C° 0 mm 1 mps 628 mmHg 48%
    08:00 +20°C° 0 mm 1 mps 629 mmHg 40%
    09:00 +24°C° 0 mm 1 mps 631 mmHg 33%
    10:00 +25°C° 0 mm 2 mps 631 mmHg 31%
    11:00 +25°C° 0 mm 2 mps 630 mmHg 30%
    12:00 +26°C° 0 mm 3 mps 630 mmHg 28%
    13:00 +26°C° 0 mm 3 mps 630 mmHg 29%
    14:00 +26°C° 0 mm 3 mps 629 mmHg 30%
    15:00 +25°C° 0 mm 3 mps 628 mmHg 31%
    16:00 +23°C° 0 mm 2 mps 628 mmHg 37%
    17:00 +20°C° 0 mm 2 mps 627 mmHg 43%
    18:00 +19°C° 0 mm 1 mps 626 mmHg 49%
    19:00 +18°C° 0 mm 1 mps 627 mmHg 50%
    20:00 +16°C° 0 mm 1 mps 627 mmHg 52%
    21:00 +15°C° 0 mm 1 mps 628 mmHg 53%
    22:00 +15°C° 0 mm 1 mps 627 mmHg 52%
    23:00 +15°C° 0 mm 2 mps 627 mmHg 51%

    1 April, Wednesday

    Time Temperature Precipitation Wind Pressure Humidity
    00:00 +14°C° 0 mm 2 mps 627 mmHg 50%
    01:00 +14°C° 0 mm 2 mps 626 mmHg 50%
    02:00 +14°C° 0 mm 2 mps 626 mmHg 50%
    03:00 +13°C° 0 mm 2 mps 626 mmHg 50%
    04:00 +13°C° 0 mm 2 mps 626 mmHg 51%
    05:00 +13°C° 0 mm 2 mps 626 mmHg 52%
    06:00 +13°C° 0 mm 2 mps 626 mmHg 53%
    07:00 +16°C° 0 mm 1 mps 627 mmHg 45%
    08:00 +21°C° 0 mm 1 mps 629 mmHg 38%
    09:00 +24°C° 0 mm 1 mps 631 mmHg 30%
    10:00 +25°C° 0 mm 2 mps 630 mmHg 28%
    11:00 +25°C° 0 mm 2 mps 630 mmHg 26%
    12:00 +26°C° 0 mm 3 mps 629 mmHg 24%
    13:00 +26°C° 0 mm 3 mps 629 mmHg 25%
    14:00 +25°C° 0 mm 3 mps 628 mmHg 26%
    15:00 +25°C° 0 mm 4 mps 627 mmHg 27%
    16:00 +22°C° 0 mm 3 mps 626 mmHg 31%
    17:00 +20°C° 0 mm 2 mps 626 mmHg 35%
    18:00 +19°C° 0 mm 1 mps 625 mmHg 39%
    19:00 +18°C° 0 mm 1 mps 626 mmHg 40%
    20:00 +16°C° 0 mm 1 mps 626 mmHg 41%
    21:00 +15°C° 0 mm 2 mps 626 mmHg 42%
    22:00 +15°C° 0 mm 2 mps 626 mmHg 42%
    23:00 +14°C° 0 mm 2 mps 626 mmHg 42%

    2 April, Thursday

    Time Temperature Precipitation Wind Pressure Humidity
    00:00 +14°C° 0 mm 2 mps 625 mmHg 43%
    01:00 +14°C° 0 mm 2 mps 625 mmHg 44%
    02:00 +14°C° 0 mm 2 mps 625 mmHg 45%
    03:00 +13°C° 0 mm 2 mps 625 mmHg 47%
    04:00 +13°C° 0 mm 2 mps 625 mmHg 47%
    05:00 +13°C° 0 mm 2 mps 625 mmHg 48%
    06:00 +12°C° 0 mm 2 mps 625 mmHg 49%
    07:00 +16°C° 0 mm 1 mps 626 mmHg 42%
    08:00 +20°C° 0 mm 1 mps 628 mmHg 35%
    09:00 +24°C° 0 mm 1 mps 629 mmHg 28%
    10:00 +24°C° 0 mm 2 mps 629 mmHg 27%
    11:00 +25°C° 0 mm 2 mps 629 mmHg 26%
    12:00 +25°C° 0 mm 3 mps 628 mmHg 25%
    13:00 +24°C° 0.2 mm 3 mps 627 mmHg 30%
    14:00 +23°C° 0.2 mm 2 mps 626 mmHg 36%
    15:00 +21°C° 0.2 mm 2 mps 625 mmHg 41%
    16:00 +20°C° 0.1 mm 2 mps 625 mmHg 44%
    17:00 +20°C° 0.1 mm 1 mps 624 mmHg 48%
    18:00 +19°C° 0.1 mm 1 mps 624 mmHg 52%
    19:00 +18°C° 0 mm 1 mps 625 mmHg 54%
    20:00 +16°C° 0 mm 2 mps 625 mmHg 56%
    21:00 +16°C° 0 mm 2 mps 626 mmHg 58%
    22:00 +15°C° 0 mm 2 mps 626 mmHg 59%
    23:00 +15°C° 0 mm 2 mps 626 mmHg 60%

    3 April, Friday

    Time Temperature Precipitation Wind Pressure Humidity
    00:00 +14°C° 0 mm 2 mps 626 mmHg 61%
    01:00 +14°C° 0 mm 2 mps 626 mmHg 61%
    02:00 +13°C° 0 mm 2 mps 625 mmHg 61%
    03:00 +13°C° 0 mm 2 mps 625 mmHg 61%
    04:00 +12°C° 0 mm 2 mps 625 mmHg 61%
    05:00 +12°C° 0 mm 2 mps 625 mmHg 60%
    06:00 +12°C° 0 mm 2 mps 626 mmHg 59%
    07:00 +15°C° 0 mm 2 mps 627 mmHg 51%
    08:00 +19°C° 0 mm 1 mps 628 mmHg 43%
    09:00 +23°C° 0 mm 1 mps 630 mmHg 35%
    10:00 +23°C° 0 mm 2 mps 629 mmHg 33%
    11:00 +24°C° 0 mm 2 mps 629 mmHg 31%
    12:00 +25°C° 0 mm 3 mps 629 mmHg 28%
    13:00 +24°C° 0.3 mm 3 mps 628 mmHg 34%
    14:00 +22°C° 0.3 mm 3 mps 627 mmHg 40%
    15:00 +21°C° 0.3 mm 3 mps 626 mmHg 46%
    16:00 +20°C° 1 mm 2 mps 626 mmHg 55%
    17:00 +19°C° 1 mm 1 mps 625 mmHg 65%
    18:00 +16°C° 1 mm 1 mps 624 mmHg 74%
    19:00 +16°C° 1 mm 1 mps 625 mmHg 75%
    20:00 +15°C° 1 mm 1 mps 626 mmHg 77%
    21:00 +15°C° 1 mm 1 mps 626 mmHg 78%
    22:00 +15°C° 0.5 mm 1 mps 626 mmHg 78%
    23:00 +15°C° 0.5 mm 1 mps 626 mmHg 78%
    Show more